Location: Little Chesterford
(52.0500°N, 0.1833°E)
Time: 12:02:29
(UTC+00:00)

SME Rocket - Pass Details

Date: 26 September 2023
Orbit: 550 x 2645 km, 99.9° (Epoch: 10 December)

Event Time Altitude Azimuth Distance (km) Brightness Sun altitude
Rises 18:52:39 0° 149° (SSE) 4,826 7.2 -10.6°
Reaches altitude 10° 18:56:05 10° 147° (SSE) 3,527 6.5 -11.1°
Maximum altitude 19:03:45 64° 69° (ENE) 1,120 4.1 -12.2°
Drops below altitude 10° 19:08:49 10° 349° (NNW) 2,361 6.4 -13.0°
Sets 19:10:45 0° 346° (NNW) 3,137 7.1 -13.3°
